Regional Weather Roundup
Issued by NWS

Home | Current Version | Previous Version | Text Only | Print | Product List | Glossary On
Versions: 1 2 3 4 5 6 7 8 9 10 11 12 13 14 15 16 17 18 19 20 21 22 23 24 25 26 27 28 29 30 31 32 33 34 35 36 37 38 39 40 41 42 43 44 45 46 47 48 49 50
000
ASUS43 KTOP 171308
RWRKS

WEATHER ROUNDUP FOR KANSAS
NATIONAL WEATHER SERVICE GOODLAND KS
800 AM CDT THU APR 17 2014

NOTE:  "FAIR" INDICATES FEW OR NO CLOUDS BELOW 12,000 FEET WITH NO
SIGNIFICANT WEATHER AND/OR OBSTRUCTIONS TO VISIBILITY.

KSZ001>006-013>018-027>032-041>047-171400-
NORTHWEST KANSAS

CITY           SKY/WX    TMP DP  RH WIND       PRES   REMARKS
GOODLAND       CLOUDY    30  28  92 E8        30.22R FOG
HAYS           CLOUDY    34  25  69 NE10      30.27R WCI  26
HILL CITY      CLOUDY    33  25  72 NE10      30.28R WCI  25
RUSSELL        CLOUDY    34  26  72 N10       30.26R WCI  26
$$

KSZ061>065-074>080-084>089-171400-
SOUTHWEST KANSAS

CITY           SKY/WX    TMP DP  RH WIND       PRES   REMARKS
DODGE CITY     CLOUDY    33  30  88 NE9       30.24R FOG
ELKHART          N/A     40  34  80 NE7         N/A
GARDEN CITY    LGT RAIN  35  31  85 NE13      30.22R FOG     WCI  26
GREAT BEND     CLOUDY    36  25  64 NE14      30.25R WCI  27
LIBERAL        CLOUDY    39  30  70 N20       30.21R WCI  30
PRATT          CLOUDY    34  28  80 NE15      30.24R WCI  24
$$

KSZ066>073-081>083-090>101-171400-
SOUTHEAST KANSAS

CITY           SKY/WX    TMP DP  RH WIND       PRES   REMARKS
CHANUTE        CLOUDY    41  32  70 N13       30.24R
COFFEYVILLE    CLOUDY    45  35  68 N12       30.22R
HUTCHINSON     CLOUDY    37  27  67 NE14G22   30.25R WCI  28
MEDICINE LODGE   N/A     41  29  62 NE12      30.22R
NEWTON         CLOUDY    36  23  60 NE9       30.28R
PARSONS        CLOUDY    43  33  68 N8        30.24R
WICHITA INTL   CLOUDY    40  28  62 N14       30.25R WCI  32
WICHITA JABRA  CLOUDY    38  29  70 N10       30.24R WCI  31
WICHITA MCCONL CLOUDY    39  31  72 NE16      30.25R WCI  30
WINFIELD       CLOUDY    41  31  67 NE15      30.23R
$$

KSZ007>012-019>026-033>040-048>060-102>105-171400-
NORTHEAST KANSAS

CITY           SKY/WX    TMP DP  RH WIND       PRES   REMARKS
CONCORDIA      CLOUDY    33  26  75 N9        30.30R
EMPORIA        CLOUDY    37  29  72 N9        30.26R
LAWRENCE       CLOUDY    38  29  70 N14       30.27R WCI  30
MANHATTAN      CLOUDY    36  27  69 N7        30.29R
OLATHE IND     CLOUDY    37  30  75 N14       30.26R WCI  28
OLATHE EXE     CLOUDY    38  30  73 N13       30.24R WCI  30
SALINA         CLOUDY    37  26  64 N14       30.29R WCI  28
TOPEKA BILLARD CLOUDY    38  28  67 N12       30.28R WCI  30
TOPEKA FORBES  CLOUDY    37  28  70 N14       30.26R WCI  28
$$



USA.gov is the U.S. government's official web portal to all federal, state and local government web resources and services.